Satellite: NCUBE2
Catalog number: 28897
Epoch time:      07271.15299963
Element set:     362
Inclination:      098.1179 deg
RA of node:       165.8821 deg
Eccentricity:    0.0017827
Arg of perigee:   149.8467 deg
Mean anomaly:     210.3770 deg
Mean motion:   14.59751413 rev/day
Decay rate:       1.06e-06 rev/day^2
Epoch rev:            9439
Checksum:              339

Satellite: FCAL
Catalog number: 29667
Epoch time:      07271.09105317
Element set:     358
Inclination:      051.6312 deg
RA of node:       273.2222 deg
Eccentricity:    0.0013708
Arg of perigee:   033.4864 deg
Mean anomaly:     326.6899 deg
Mean motion:   15.91852612 rev/day
Decay rate:     1.5606e-04 rev/day^2
Epoch rev:            4437
Checksum:              300

Satellite: FALCON
Catalog number: 30776
Epoch time:      07269.50676188
Element set:    0160
Inclination:      035.4349 deg
RA of node:       318.4264 deg
Eccentricity:    0.0001537
Arg of perigee:   290.4975 deg
Mean anomaly:     069.5576 deg
Mean motion:   15.02769259 rev/day
Decay rate:       2.50e-06 rev/day^2
Epoch rev:           03030
Checksum:              309

Satellite: MAST
Catalog number: 31126
Epoch time:      07271.18450270
Element set:     144
Inclination:      098.0752 deg
RA of node:       340.6580 deg
Eccentricity:    0.0095953
Arg of perigee:   066.7667 deg
Mean anomaly:     294.3543 deg
Mean motion:   14.53366287 rev/day
Decay rate:       3.44e-06 rev/day^2
Epoch rev:            2381
Checksum:              301

Satellite: CAPE1
Catalog number: 31130
Epoch time:      07270.80057240
Element set:     126
Inclination:      098.0756 deg
RA of node:       339.9045 deg
Eccentricity:    0.0104056
Arg of perigee:   069.2853 deg
Mean anomaly:     291.9445 deg
Mean motion:   14.51886757 rev/day
Decay rate:        1.9e-07 rev/day^2
Epoch rev:            2350
Checksum:              293

/EX





More information about the Keps mailing list